Regional Weather Roundup
Issued by NWS Green Bay, WI

Home | Current Version | Previous Version | Text Only | Print | Product List | Glossary On
Versions: 1 2 3 4 5 6 7 8 9 10 11 12 13 14 15 16 17 18 19 20 21 22 23 24 25 26 27 28 29 30 31 32 33 34 35 36 37 38 39 40 41 42 43 44 45 46 47 48 49 50
000
ASUS43 KGRB 261111
RWRGRB

NORTH-CENTRAL AND NORTHEAST WISCONSIN REGIONAL WEATHER ROUNDUP
NATIONAL WEATHER SERVICE GREEN BAY WI
600 AM CDT TUE MAY 26 2015

WIZ005-009-010>012-018-019-261200-
NORTH CENTRAL WISCONSIN

CITY           SKY/WX    TMP DP  RH WIND       PRES   REMARKS
IRONWOOD       CLOUDY    52  52 100 CALM      29.79S VSB 1/4
MANITOWISH WTR MOCLDY    59  59 100 CALM      29.81S FOG
ARBOR VITAE    MOCLDY    58  57  96 CALM      29.83R FOG
EAGLE RIVER    CLOUDY    58  58 100 S3        29.83R FOG
LAND O LAKES   CLOUDY    58  58 100 CALM      29.82S FOG
RHINELANDER    CLOUDY    61  59  93 S5        29.84R
PHILLIPS       FOG       58  58 100 CALM      29.81R VSB 3/4
ANTIGO         PTCLDY    57  57 100 S7        29.86R
TOMAHAWK       FOG       57  56  97 CALM      29.83R VSB 1
MERRILL        FOG       52  52 100 CALM      29.85R VSB 3/4
$$

WIZ013-073-261200-
NORTHEAST WISCONSIN

CITY           SKY/WX    TMP DP  RH WIND       PRES   REMARKS
IRON MOUNTAIN  CLEAR     57  57 100 SE3       29.82R FOG
MARINETTE      CLEAR     63  57  82 SW9       29.84R
OCONTO         CLEAR     63  63 100 S5        29.85R
$$

WIZ017-030-035>037-045-261200-
CENTRAL WISCONSIN

CITY           SKY/WX    TMP DP  RH WIND       PRES   REMARKS
MEDFORD        MOCLDY    58  58  99 S7        29.84R FOG
WAUSAU         MOCLDY    61  60  97 E3        29.83R
MOSINEE        CLEAR     59  59 100 S5        29.85R
MARSHFIELD     FOG       59  57  93 S5        29.84R VSB 1/4
WISC RAPIDS    PTCLDY    59  57  93 E3        29.85R FOG
STEVENS POINT  CLOUDY    57  57 100 CALM      29.85R FOG
WAUPACA        PTCLDY    63  62  97 CALM      29.84S
SHAWANO        CLEAR     63  61  94 CALM      29.86R
CLINTONVILLE   CLEAR     61  59  94 S6        29.85R
$$

WIZ038-039-048-051-261200-
FOX VALLEY

CITY           SKY/WX    TMP DP  RH WIND       PRES   REMARKS
NWS GREEN BAY  CLEAR     66  61  84 S8        29.86S
APPLETON       PTCLDY    64  61  88 S9        29.87R
OSHKOSH        CLEAR     65  61  87 S9        29.86R
FOND DU LAC    CLEAR     68  63  84 SW10G21   29.87R
$$

WIZ022-050-052-261200-
EAST CENTRAL WISCONSIN

CITY           SKY/WX    TMP DP  RH WIND       PRES   REMARKS
STURGEON BAY     N/A     63  57  82 S8        29.89R
MANITOWOC      PTCLDY    58  56  93 S3        29.89R
SHEBOYGAN      CLEAR     62  60  93 S8        29.89R
$$

LMZ563-521-522-541>543-261200-
LAKESHORE

STATION/POSITION TIME  TEMP    WIND        PRES    VSBY  WAVE
                       AIR SEA DIR/SP/G                  HT/PER
                 (UTC) (F)     (DEG/KT/KT) (MB)    (MI)  (FT/S)
SHEBOYGAN LKSHOR 1100   54     180/ 17/ 18 1012.2R
KEWAUNEE LKSHORE 1000   54     190/ 11/ 12 1010.4R
NORTHPORT PIER   1000   54     170/  2/  6 1010.5S
N MID LAKE BUOY  1050   42 36  190/ 16/ 17 1011.6R         2/ 5
SISTER BAY LKSHO 1048   60     180/  9/ 11   N/A
CHAMBERS ISLAND  1000   62     190/  5/ 14 1010.2S
MENOMINEE LKSHOR 1000   64     200/  6/ 10 1010.6S
$$



USA.gov is the U.S. government's official web portal to all federal, state and local government web resources and services.